Regional Weather Roundup
Issued by NWS Cleveland, OH

Home | Current Version | Previous Version | Graphics & Text | Print | Product List | Glossary On
Versions: 1 2 3 4 5 6 7 8 9 10 11 12 13 14 15 16 17 18 19 20 21 22 23 24 25 26 27 28 29 30 31 32 33 34 35 36 37 38 39 40 41 42 43 44 45 46 47 48 49 50
000
ASUS41 KCLE 301300
RWRCLE
OHIO REGIONAL WEATHER ROUNDUP
NATIONAL WEATHER SERVICE WILMINGTON, OH
900 AM EDT TUE SEP 30 2014

NOTE: "FAIR" INDICATES FEW OR NO CLOUDS BELOW 12,000 FEET WITH NO
SIGNIFICANT WEATHER AND/OR OBSTRUCTIONS TO VISIBILITY.

OHZ001>008-015>018-024>027-034-035-043-044-301400-
   NORTHWEST OHIO

CITY           SKY/WX    TMP DP  RH WIND       PRES   REMARKS
DEFIANCE       CLOUDY    51  47  86 N10       29.99R
FINDLAY        CLOUDY    57  54  88 N15       29.94R
TOLEDO EXPRESS CLOUDY    50  49  96 N9        29.97R
TOLEDO METCALF CLOUDY    53  49  86 NW8       29.97R
LIMA           CLOUDY    59  57  93 NW8       29.96R
$$

OHZ009>014-019>023-028>033-038-089-301400-
   NORTHEAST OHIO

CITY           SKY/WX    TMP DP  RH WIND       PRES   REMARKS
CLE-HOPKINS    CLOUDY    59  58  96 CALM      29.92R FOG
CLE-LAKEFRONT  LGT RAIN  64  61  90 W3        29.89R
CUY CO. ARPT   LGT RAIN  61  61 100 S9        29.90S FOG
LORAIN-ELYRIA  LGT RAIN  64  59  83 N9        29.92R
ASHTABULA      HVY RAIN  59  58  96 VRB3      29.92S VSB 1
AKRON-CANTON   PTSUNNY   61  55  81 NW3       29.91R HAZE
WOOSTER        RAIN      58  54  86 W8        29.94R FOG
MANSFIELD      TSTM      57  57 100 S6        29.94S FOG
YOUNGSTOWN     PTSUNNY   60  56  86 W3        29.91R FOG
$$

OHZ042-051>053-060>062-070>072-077>081-301400-
  SOUTHWEST OHIO

CITY           SKY/WX    TMP DP  RH WIND       PRES   REMARKS
CINC-COVINGTON MOSUNNY   60  53  77 CALM      29.95S
CINC-LUNKEN    MOSUNNY   55  55 100 CALM      29.96S FOG
HAMILTON       SUNNY     57  54  89 CALM      29.96S
DAYTON         NOT AVBL
WRIGHT-PAT AFB SUNNY     57  54  87 SW1       29.94R
DAYTON GENERAL MOSUNNY   60  54  80 CALM      29.94S
WILMINGTON     MOSUNNY   61  51  70 W7        29.94S
$$

OHZ036-037-039>041-045>050-054>059-063>069-073>076-082>088-301400-
  CENTRAL AND SOUTHEAST OHIO

CITY           SKY/WX    TMP DP  RH WIND       PRES   REMARKS
COLUMBUS       PTSUNNY   57  50  77 CALM      29.93R
OSU AIRPORT    PTSUNNY   61  53  75 CALM      29.93S
BOLTON FIELD     N/A     59  54  82 CALM      29.94R
RICKENBACK AFB NOT AVBL
NEWARK         PTSUNNY   54  52  93 E3        29.93R
MARION         CLOUDY    58  56  93 CALM      29.93R FOG
LANCASTER      PTSUNNY   56  52  86 CALM      29.94R
ZANESVILLE     SUNNY     53  50  89 CALM      29.92R
NEW PHILLY     FOG       53  53 100 NW3       29.93R VSB<1/4
$$



USA.gov is the U.S. government's official web portal to all federal, state and local government web resources and services.